,,,PA_Meas_PMT16A,,PR_Meas_QMR101_102,,RH_Meas_QMH101,,SR_Meas_QMS101,,TA_Meas_QMH101,,GenWind,,GenWind,
date,time,status,PA,status,PR,status,RH,status,SR,status,TA,status,DirAvg,status,SpdAvg,
2012-01-29, 00:00:04,VALID,1004.08,VALID,0,VALID,93.0495,VALID,0,VALID,24.0345,VALID,23,VALID,0.233594,
2012-01-29, 00:01:04,VALID,1004.06,VALID,0,VALID,93.0723,VALID,0,VALID,24.0345,VALID,23,VALID,0,
2012-01-29, 00:02:04,VALID,1004.07,VALID,0,VALID,92.9961,VALID,0,VALID,24.0345,VALID,23,VALID,0,
2012-01-29, 00:03:04,VALID,1004.04,VALID,0,VALID,92.9884,VALID,0,VALID,24.015,VALID,23,VALID,0,
2012-01-29, 00:04:04,VALID,1004.04,VALID,0,VALID,93.0037,VALID,0,VALID,24.015,VALID,23,VALID,0,
2012-01-29, 00:05:04,VALID,1004.04,VALID,0,VALID,92.9426,VALID,0,VALID,24.015,VALID,23,VALID,0.404687,
2012-01-29, 00:06:04,VALID,1004.02,VALID,0,VALID,92.9045,VALID,0,VALID,23.9742,VALID,23,VALID,0.348828,
2012-01-29, 00:07:04,VALID,1004.02,VALID,0,VALID,92.9121,VALID,0,VALID,23.9548,VALID,23,VALID,0.242188,
2012-01-29, 00:08:04,VALID,1003.96,VALID,0,VALID,92.9579,VALID,0,VALID,23.9548,VALID,23,VALID,0.20625,
2012-01-29, 00:09:04,VALID,1003.94,VALID,0,VALID,92.9503,VALID,0,VALID,23.9353,VALID,23,VALID,0.286328,
2012-01-29, 00:10:04,VALID,1003.95,VALID,0,VALID,93.0189,VALID,0,VALID,23.9371,VALID,23,VALID,0.390234,
2012-01-29, 00:11:04,VALID,1003.89,VALID,0,VALID,93.0723,VALID,0,VALID,23.9566,VALID,23,VALID,0.450781,
2012-01-29, 00:12:04,VALID,1003.9,VALID,0,VALID,93.0647,VALID,0,VALID,23.9159,VALID,23,VALID,0.323047,
2012-01-29, 00:13:04,VALID,1003.88,VALID,0,VALID,93.1029,VALID,0,VALID,23.9371,VALID,23,VALID,0.488281,
2012-01-29, 00:14:04,VALID,1003.85,VALID,0,VALID,93.08,VALID,0,VALID,23.9159,VALID,23,VALID,0.358203,
2012-01-29, 00:15:04,VALID,1003.85,VALID,0,VALID,93.1563,VALID,0,VALID,23.9159,VALID,23,VALID,0.55625,
2012-01-29, 00:16:04,VALID,1003.82,VALID,0,VALID,93.1715,VALID,0,VALID,23.9177,VALID,23,VALID,0.327344,
2012-01-29, 00:17:04,VALID,1003.79,VALID,0,VALID,93.3088,VALID,0,VALID,23.9177,VALID,23,VALID,0.258203,
2012-01-29, 00:18:04,VALID,1003.78,VALID,0,VALID,93.3699,VALID,0,VALID,23.9159,VALID,23,VALID,0,
2012-01-29, 00:19:04,VALID,1003.77,VALID,0,VALID,93.3546,VALID,0,VALID,23.9159,VALID,23,VALID,0,
2012-01-29, 00:20:04,VALID,1003.74,VALID,0,VALID,93.3317,VALID,0,VALID,23.9566,VALID,23,VALID,0,
2012-01-29, 00:21:04,VALID,1003.75,VALID,0,VALID,93.3928,VALID,0,VALID,23.9353,VALID,23,VALID,0,
2012-01-29, 00:22:04,VALID,1003.73,VALID,0,VALID,93.3699,VALID,0,VALID,23.9742,VALID,23,VALID,0,
2012-01-29, 00:23:04,VALID,1003.71,VALID,0,VALID,93.3775,VALID,0,VALID,23.9742,VALID,23,VALID,0,
2012-01-29, 00:24:04,VALID,1003.65,VALID,0,VALID,93.3622,VALID,0,VALID,23.9548,VALID,23,VALID,0,
2012-01-29, 00:25:04,VALID,1003.65,VALID,0,VALID,93.408,VALID,0,VALID,23.9742,VALID,23,VALID,0,
2012-01-29, 00:26:04,VALID,1003.66,VALID,0,VALID,93.3928,VALID,0,VALID,23.9955,VALID,23,VALID,0,
2012-01-29, 00:27:04,VALID,1003.66,VALID,0,VALID,93.408,VALID,0,VALID,23.9742,VALID,23,VALID,0,
2012-01-29, 00:28:04,VALID,1003.69,VALID,0,VALID,93.4614,VALID,0,VALID,23.9742,VALID,23,VALID,0,
2012-01-29, 00:29:04,VALID,1003.71,VALID,0,VALID,93.4614,VALID,0.0815089,VALID,23.9742,VALID,23,VALID,0,
2012-01-29, 00:30:04,VALID,1003.73,VALID,0,VALID,93.5072,VALID,0,VALID,23.9937,VALID,23,VALID,0,
2012-01-29, 00:31:04,VALID,1003.77,VALID,0,VALID,93.5453,VALID,0,VALID,24.015,VALID,23,VALID,0,
2012-01-29, 00:32:04,VALID,1003.79,VALID,0,VALID,93.4996,VALID,0,VALID,23.9937,VALID,23,VALID,0.472656,
2012-01-29, 00:33:04,VALID,1003.82,VALID,0,VALID,93.4996,VALID,0,VALID,23.9937,VALID,23,VALID,0.354297,
2012-01-29, 00:34:04,VALID,1003.81,VALID,0,VALID,93.5606,VALID,0,VALID,23.9937,VALID,23,VALID,0.435937,
2012-01-29, 00:35:04,VALID,1003.83,VALID,0,VALID,93.5606,VALID,0,VALID,23.9937,VALID,23,VALID,0.465625,
2012-01-29, 00:36:04,VALID,1003.81,VALID,0,VALID,93.614,VALID,0,VALID,24.0132,VALID,16,VALID,0.344141,
2012-01-29, 00:37:04,VALID,1003.78,VALID,0,VALID,93.6064,VALID,0,VALID,24.0326,VALID,16,VALID,0.421094,
2012-01-29, 00:38:04,VALID,1003.8,VALID,0,VALID,93.614,VALID,0,VALID,24.0521,VALID,16,VALID,0.477344,
2012-01-29, 00:39:04,VALID,1003.81,VALID,0,VALID,93.6216,VALID,0,VALID,24.0734,VALID,16,VALID,0.414453,
2012-01-29, 00:40:04,VALID,1003.84,VALID,0,VALID,93.6216,VALID,0,VALID,24.091,VALID,16,VALID,0.553906,
2012-01-29, 00:41:04,VALID,1003.84,VALID,0,VALID,93.5987,VALID,0,VALID,24.1123,VALID,16,VALID,0.653516,
2012-01-29, 00:42:04,VALID,1003.85,VALID,0,VALID,93.5987,VALID,0,VALID,24.1123,VALID,16,VALID,0.471875,
2012-01-29, 00:43:04,VALID,1003.86,VALID,0,VALID,93.5835,VALID,0,VALID,24.1513,VALID,16,VALID,0.576953,
2012-01-29, 00:44:04,VALID,1003.86,VALID,0,VALID,93.5148,VALID,0,VALID,24.1513,VALID,16,VALID,0.498047,
2012-01-29, 00:45:04,VALID,1003.83,VALID,0,VALID,93.4538,VALID,0,VALID,24.13,VALID,16,VALID,0.441016,
2012-01-29, 00:46:04,VALID,1003.81,VALID,0,VALID,93.5072,VALID,0,VALID,24.1707,VALID,16,VALID,0.269922,
2012-01-29, 00:47:04,VALID,1003.78,VALID,0,VALID,93.5224,VALID,0,VALID,24.1689,VALID,16,VALID,0.172656,
2012-01-29, 00:48:04,VALID,1003.73,VALID,0,VALID,93.4233,VALID,0,VALID,24.1902,VALID,16,VALID,0.374609,
2012-01-29, 00:49:04,VALID,1003.76,VALID,0,VALID,93.4233,VALID,0,VALID,24.1902,VALID,16,VALID,0.229687,
2012-01-29, 00:50:04,VALID,1003.76,VALID,0,VALID,93.4996,VALID,0,VALID,24.1884,VALID,16,VALID,0.390625,
2012-01-29, 00:51:04,VALID,1003.76,VALID,0,VALID,93.4538,VALID,0,VALID,24.2097,VALID,16,VALID,0.288672,
2012-01-29, 00:52:04,VALID,1003.81,VALID,0,VALID,93.4462,VALID,0,VALID,24.2486,VALID,13,VALID,0.590234,
2012-01-29, 00:53:04,VALID,1003.84,VALID,0,VALID,93.347,VALID,0,VALID,24.2273,VALID,7,VALID,0.632813,
2012-01-29, 00:54:04,VALID,1003.92,VALID,0,VALID,93.2783,VALID,0,VALID,24.2486,VALID,3,VALID,0.725781,
2012-01-29, 00:55:04,VALID,1003.93,VALID,0,VALID,93.2478,VALID,0,VALID,24.2875,VALID,359,VALID,0.715234,
2012-01-29, 00:56:04,VALID,1003.99,VALID,0,VALID,93.2631,VALID,0,VALID,24.2681,VALID,355,VALID,0.793359,
2012-01-29, 00:57:04,VALID,1004.01,VALID,0,VALID,93.2783,VALID,0,VALID,24.2875,VALID,358,VALID,0.782422,
2012-01-29, 00:58:04,VALID,1004.06,VALID,0,VALID,93.2631,VALID,0,VALID,24.3265,VALID,344,VALID,0.805859,
2012-01-29, 00:59:04,VALID,1004.06,VALID,0,VALID,93.4156,VALID,0,VALID,24.3441,VALID,355,VALID,1.00469,
2012-01-29, 01:00:04,VALID,1004.14,VALID,0,VALID,93.4309,VALID,0,VALID,24.4238,VALID,316,VALID,1.29727,
2012-01-29, 01:01:04,VALID,1004.12,VALID,0,VALID,91.6991,VALID,0,VALID,24.4238,VALID,3,VALID,2.43477,
2012-01-29, 01:02:04,VALID,1004.13,VALID,0,VALID,91.0583,VALID,0,VALID,24.5017,VALID,347,VALID,2.01211,
2012-01-29, 01:03:04,VALID,1004.15,VALID,0,VALID,90.3107,VALID,0,VALID,24.5406,VALID,345,VALID,2.19648,
2012-01-29, 01:04:04,VALID,1004.17,VALID,0,VALID,89.6546,VALID,0,VALID,24.5601,VALID,3,VALID,2.23164,
2012-01-29, 01:05:04,VALID,1004.15,VALID,0,VALID,88.9451,VALID,0,VALID,24.5601,VALID,354,VALID,1.95938,
2012-01-29, 01:06:04,VALID,1004.16,VALID,0,VALID,88.8536,VALID,0,VALID,24.5601,VALID,346,VALID,1.89063,
2012-01-29, 01:07:04,VALID,1004.11,VALID,0,VALID,88.4721,VALID,0,VALID,24.5406,VALID,341,VALID,1.63242,
2012-01-29, 01:08:04,VALID,1004.1,VALID,0,VALID,88.495,VALID,0,VALID,24.5406,VALID,1,VALID,1.69844,
2012-01-29, 01:09:04,VALID,1004.11,VALID,0,VALID,88.0525,VALID,0,VALID,24.5212,VALID,347,VALID,2.37266,
2012-01-29, 01:10:04,VALID,1004.12,VALID,0,VALID,88.1136,VALID,0,VALID,24.5017,VALID,348,VALID,2.6957,
2012-01-29, 01:11:04,VALID,1004.11,VALID,0,VALID,88.2509,VALID,0,VALID,24.5212,VALID,351,VALID,2.3793,
2012-01-29, 01:12:04,VALID,1004.09,VALID,0,VALID,88.3729,VALID,0,VALID,24.4822,VALID,5,VALID,1.53711,
2012-01-29, 01:13:04,VALID,1004.09,VALID,0,VALID,88.3043,VALID,0,VALID,24.4646,VALID,344,VALID,2.29414,
2012-01-29, 01:14:04,VALID,1004.08,VALID,0,VALID,88.4264,VALID,0,VALID,24.4238,VALID,349,VALID,2.17031,
2012-01-29, 01:15:04,VALID,1004.09,VALID,0,VALID,88.2967,VALID,0,VALID,24.3849,VALID,351,VALID,2.26836,
2012-01-29, 01:16:04,VALID,1004.16,VALID,0,VALID,88.495,VALID,0,VALID,24.383,VALID,356,VALID,1.90664,
2012-01-29, 01:17:04,VALID,1004.12,VALID,0,VALID,88.4111,VALID,0,VALID,24.3441,VALID,347,VALID,1.70625,
2012-01-29, 01:18:04,VALID,1004.13,VALID,0,VALID,88.3729,VALID,0,VALID,24.3654,VALID,1,VALID,1.90078,
2012-01-29, 01:19:04,VALID,1004.13,VALID,0,VALID,88.3577,VALID,0,VALID,24.3246,VALID,355,VALID,2.09648,
2012-01-29, 01:20:04,VALID,1004.11,VALID,0,VALID,88.4111,VALID,0,VALID,24.3459,VALID,8,VALID,1.68594,
2012-01-29, 01:21:04,VALID,1004.17,VALID,0,VALID,88.2051,VALID,0,VALID,24.3654,VALID,346,VALID,2.08984,
2012-01-29, 01:22:04,VALID,1004.16,VALID,0,VALID,88.1593,VALID,0,VALID,24.3246,VALID,353,VALID,1.83008,
2012-01-29, 01:23:04,VALID,1004.15,VALID,0,VALID,87.3965,VALID,0,VALID,24.3654,VALID,352,VALID,2.10586,
2012-01-29, 01:24:04,VALID,1004.13,VALID,0,VALID,86.6488,VALID,0,VALID,24.3265,VALID,356,VALID,2.8707,
2012-01-29, 01:25:04,VALID,1004.17,VALID,0,VALID,86.008,VALID,0,VALID,24.3673,VALID,15,VALID,3.07266,
2012-01-29, 01:26:04,VALID,1004.16,VALID,0,VALID,85.3214,VALID,0,VALID,24.3459,VALID,7,VALID,2.39453,
2012-01-29, 01:27:04,VALID,1004.09,VALID,0,VALID,85.123,VALID,0,VALID,24.3459,VALID,21,VALID,1.65,
2012-01-29, 01:28:04,VALID,1004.17,VALID,0,VALID,85.4511,VALID,0,VALID,24.3867,VALID,50,VALID,1.62188,
2012-01-29, 01:29:04,VALID,1004.15,VALID,0,VALID,86.2292,VALID,0,VALID,24.3052,VALID,20,VALID,1.57227,
2012-01-29, 01:30:04,VALID,1004.11,VALID,0,VALID,86.687,VALID,0,VALID,24.2681,VALID,21,VALID,1.81641,
2012-01-29, 01:31:04,VALID,1004.12,VALID,0,VALID,87.1142,VALID,0,VALID,24.1884,VALID,31,VALID,1.75273,
2012-01-29, 01:32:04,VALID,1004.07,VALID,0,VALID,87.3049,VALID,0,VALID,24.1513,VALID,21,VALID,2.4457,
2012-01-29, 01:33:04,VALID,1003.99,VALID,0,VALID,87.2591,VALID,0,VALID,24.0716,VALID,74,VALID,2.40781,
2012-01-29, 01:34:04,VALID,1003.94,VALID,0,VALID,87.9305,VALID,0,VALID,24.0539,VALID,29,VALID,1.66719,
2012-01-29, 01:35:04,VALID,1003.92,VALID,0,VALID,87.6329,VALID,0,VALID,24.0363,VALID,14,VALID,2.94102,
2012-01-29, 01:36:04,VALID,1003.89,VALID,0,VALID,87.6253,VALID,0,VALID,23.9761,VALID,32,VALID,2.00547,
2012-01-29, 01:37:04,VALID,1003.89,VALID,0,VALID,87.3659,VALID,0,VALID,23.9353,VALID,53,VALID,1.53203,
2012-01-29, 01:38:04,VALID,1003.88,VALID,0,VALID,87.427,VALID,0,VALID,23.9566,VALID,15,VALID,2.6707,
2012-01-29, 01:39:04,VALID,1003.95,VALID,0,VALID,88.1059,VALID,0,VALID,23.9566,VALID,24,VALID,1.38867,
2012-01-29, 01:40:04,VALID,1003.92,VALID,0,VALID,87.7626,VALID,0,VALID,23.9177,VALID,357,VALID,3.42422,
2012-01-29, 01:41:04,VALID,1003.88,VALID,0,VALID,87.9228,VALID,0,VALID,23.8769,VALID,8,VALID,2.38906,
2012-01-29, 01:42:04,VALID,1003.87,VALID,0,VALID,88.434,VALID,0,VALID,23.8593,VALID,47,VALID,1.30273,
2012-01-29, 01:43:04,VALID,1003.84,VALID,0,VALID,88.6247,VALID,0,VALID,23.8009,VALID,73,VALID,1.48164,
2012-01-29, 01:44:04,VALID,1003.81,VALID,0,VALID,88.8612,VALID,0,VALID,23.7619,VALID,49,VALID,0.919141,
2012-01-29, 01:45:04,VALID,1003.82,VALID,0,VALID,89.2884,VALID,0.0815089,VALID,23.6805,VALID,55,VALID,1.38867,
2012-01-29, 01:46:04,VALID,1003.79,VALID,0,VALID,89.3723,VALID,0,VALID,23.6239,VALID,58,VALID,1.27031,
2012-01-29, 01:47:04,VALID,1003.8,VALID,0,VALID,89.6165,VALID,0,VALID,23.6062,VALID,59,VALID,0.789453,
2012-01-29, 01:48:04,VALID,1003.76,VALID,0,VALID,89.5783,VALID,0,VALID,23.5673,VALID,70,VALID,1.86016,
2012-01-29, 01:49:04,VALID,1003.79,VALID,0,VALID,89.3266,VALID,0,VALID,23.5266,VALID,79,VALID,1.72305,
2012-01-29, 01:50:04,VALID,1003.8,VALID,0,VALID,89.7233,VALID,0,VALID,23.5071,VALID,33,VALID,1.45742,
2012-01-29, 01:51:04,VALID,1003.8,VALID,0,VALID,89.7996,VALID,0,VALID,23.47,VALID,29,VALID,1.90273,
2012-01-29, 01:52:04,VALID,1003.82,VALID,0,VALID,90.1963,VALID,0,VALID,23.4487,VALID,29,VALID,0.78125,
2012-01-29, 01:53:04,VALID,1003.81,VALID,0,VALID,90.4175,VALID,0,VALID,23.4098,VALID,23,VALID,1.45898,
2012-01-29, 01:54:04,VALID,1003.79,VALID,0,VALID,89.8301,VALID,0,VALID,23.3514,VALID,39,VALID,2.12578,
2012-01-29, 01:55:04,VALID,1003.78,VALID,0,VALID,89.9826,VALID,0,VALID,23.332,VALID,15,VALID,2.36797,
2012-01-29, 01:56:04,VALID,1003.78,VALID,0.5,VALID,90.2878,VALID,0,VALID,23.3125,VALID,27,VALID,1.51211,
2012-01-29, 01:57:04,VALID,1003.74,VALID,0,VALID,89.9369,VALID,0,VALID,23.3143,VALID,16,VALID,2.71563,
2012-01-29, 01:58:04,VALID,1003.68,VALID,0,VALID,90.12,VALID,0.0815089,VALID,23.332,VALID,11,VALID,0.815625,
2012-01-29, 01:59:04,VALID,1003.61,VALID,0,VALID,90.4785,VALID,0,VALID,23.3125,VALID,24,VALID,0.981641,
2012-01-29, 02:00:04,VALID,1003.62,VALID,0,VALID,90.7303,VALID,0,VALID,23.2948,VALID,38,VALID,0.666016,
2012-01-29, 02:01:04,VALID,1003.57,VALID,0,VALID,90.6006,VALID,0,VALID,23.2364,VALID,63,VALID,1.05039,
2012-01-29, 02:02:04,VALID,1003.56,VALID,0,VALID,90.6006,VALID,0.0815089,VALID,23.1745,VALID,45,VALID,1.01133,
2012-01-29, 02:03:04,VALID,1003.51,VALID,0,VALID,90.7379,VALID,0,VALID,23.178,VALID,52,VALID,0.389844,
2012-01-29, 02:04:04,VALID,1003.5,VALID,0,VALID,91.0202,VALID,0,VALID,23.178,VALID,42,VALID,0.589453,
2012-01-29, 02:05:04,VALID,1003.52,VALID,0,VALID,91.1728,VALID,0.0815089,VALID,23.1374,VALID,30,VALID,1.02891,
2012-01-29, 02:06:04,VALID,1003.54,VALID,0,VALID,91.3635,VALID,0,VALID,23.1391,VALID,26,VALID,0.950391,
2012-01-29, 02:07:04,VALID,1003.53,VALID,0,VALID,91.1575,VALID,0,VALID,23.1197,VALID,33,VALID,1.03867,
2012-01-29, 02:08:04,VALID,1003.54,VALID,0,VALID,91.3558,VALID,0.0815089,VALID,23.1179,VALID,38,VALID,0.730469,
2012-01-29, 02:09:04,VALID,1003.55,VALID,0,VALID,91.3482,VALID,0,VALID,23.1002,VALID,66,VALID,0.5625,
2012-01-29, 02:10:04,VALID,1003.55,VALID,0,VALID,91.5466,VALID,0.0815089,VALID,23.0578,VALID,24,VALID,0.382031,
2012-01-29, 02:11:04,VALID,1003.51,VALID,0.5,VALID,91.4779,VALID,0.0815089,VALID,23.0401,VALID,84,VALID,0.325781,
2012-01-29, 02:12:04,VALID,1003.57,VALID,0,VALID,91.394,VALID,0,VALID,22.9834,VALID,56,VALID,0.604688,
2012-01-29, 02:13:04,VALID,1003.55,VALID,0,VALID,91.6457,VALID,0,VALID,22.964,VALID,65,VALID,0.444531,
2012-01-29, 02:14:04,VALID,1003.56,VALID,0,VALID,91.6991,VALID,0,VALID,22.8844,VALID,43,VALID,0.387109,
2012-01-29, 02:15:04,VALID,1003.53,VALID,0,VALID,91.661,VALID,0,VALID,22.8455,VALID,95,VALID,1.73594,
2012-01-29, 02:16:04,VALID,1003.52,VALID,0,VALID,91.7983,VALID,0,VALID,22.8472,VALID,99,VALID,1.14648,
2012-01-29, 02:17:04,VALID,1003.55,VALID,0.5,VALID,91.867,VALID,0,VALID,22.7871,VALID,97,VALID,0.99375,
2012-01-29, 02:18:04,VALID,1003.53,VALID,0,VALID,92.1111,VALID,0,VALID,22.7677,VALID,106,VALID,0.996875,
2012-01-29, 02:19:04,VALID,1003.52,VALID,0,VALID,92.2637,VALID,0,VALID,22.7287,VALID,101,VALID,1.29648,
2012-01-29, 02:20:04,VALID,1003.52,VALID,0,VALID,92.3095,VALID,0.0815089,VALID,22.7287,VALID,103,VALID,0.838672,
2012-01-29, 02:21:04,VALID,1003.48,VALID,0,VALID,92.5154,VALID,0,VALID,22.6898,VALID,99,VALID,1.075,
2012-01-29, 02:22:04,VALID,1003.48,VALID,0.5,VALID,92.5383,VALID,0,VALID,22.6915,VALID,109,VALID,1.2832,
2012-01-29, 02:23:04,VALID,1003.47,VALID,0,VALID,92.6528,VALID,0,VALID,22.6704,VALID,99,VALID,0.936719,
2012-01-29, 02:24:04,VALID,1003.47,VALID,0,VALID,92.6604,VALID,0,VALID,22.6509,VALID,102,VALID,0.994141,
2012-01-29, 02:25:04,VALID,1003.45,VALID,0,VALID,92.8358,VALID,0,VALID,22.6526,VALID,87,VALID,0.567187,
2012-01-29, 02:26:04,VALID,1003.43,VALID,0,VALID,92.8816,VALID,0,VALID,22.6315,VALID,101,VALID,0.925,
2012-01-29, 02:27:04,VALID,1003.45,VALID,0,VALID,92.8892,VALID,0,VALID,22.612,VALID,97,VALID,0.759375,
2012-01-29, 02:28:04,VALID,1003.45,VALID,0,VALID,93.08,VALID,0,VALID,22.5925,VALID,86,VALID,0.6,
2012-01-29, 02:29:04,VALID,1003.45,VALID,0.5,VALID,93.0876,VALID,0,VALID,22.5925,VALID,77,VALID,0.325781,
2012-01-29, 02:30:04,VALID,1003.43,VALID,0,VALID,93.1563,VALID,0,VALID,22.5925,VALID,76,VALID,0.297656,
2012-01-29, 02:31:04,VALID,1003.43,VALID,0,VALID,93.2631,VALID,0,VALID,22.5925,VALID,46,VALID,0.452344,
2012-01-29, 02:32:04,VALID,1003.45,VALID,0,VALID,93.4385,VALID,0,VALID,22.5925,VALID,47,VALID,0.175,
2012-01-29, 02:33:04,VALID,1003.41,VALID,0,VALID,93.5224,VALID,0,VALID,22.5925,VALID,47,VALID,0,
2012-01-29, 02:34:04,VALID,1003.43,VALID,0,VALID,93.5377,VALID,0,VALID,22.5731,VALID,47,VALID,0.249219,
2012-01-29, 02:35:04,VALID,1003.44,VALID,0,VALID,93.6826,VALID,0,VALID,22.5731,VALID,46,VALID,0.489062,
2012-01-29, 02:36:04,VALID,1003.43,VALID,0,VALID,93.7742,VALID,0.0815089,VALID,22.5519,VALID,28,VALID,0.640234,
2012-01-29, 02:37:04,VALID,1003.43,VALID,0,VALID,93.9115,VALID,0,VALID,22.5925,VALID,23,VALID,0.114063,
2012-01-29, 02:38:04,VALID,1003.42,VALID,0,VALID,93.8734,VALID,0,VALID,22.5925,VALID,23,VALID,0.189453,
2012-01-29, 02:39:05,VALID,1003.41,VALID,0,VALID,93.8886,VALID,0.0815089,VALID,22.5925,VALID,23,VALID,0.416797,
2012-01-29, 02:40:05,VALID,1003.4,VALID,0,VALID,93.9497,VALID,0,VALID,22.612,VALID,18,VALID,0.764453,
2012-01-29, 02:41:05,VALID,1003.4,VALID,0,VALID,94.0717,VALID,0,VALID,22.612,VALID,11,VALID,0.832031,
2012-01-29, 02:42:05,VALID,1003.4,VALID,0,VALID,94.0717,VALID,0.0815089,VALID,22.6315,VALID,358,VALID,0.669141,
2012-01-29, 02:43:05,VALID,1003.4,VALID,0,VALID,94.0794,VALID,0,VALID,22.6315,VALID,358,VALID,0.373047,
2012-01-29, 02:44:05,VALID,1003.34,VALID,0,VALID,94.1709,VALID,0,VALID,22.6721,VALID,359,VALID,0.0640625,
2012-01-29, 02:45:05,VALID,1003.31,VALID,0,VALID,94.2167,VALID,0,VALID,22.6704,VALID,356,VALID,0.348047,
2012-01-29, 02:46:05,VALID,1003.27,VALID,0,VALID,94.2167,VALID,0,VALID,22.6492,VALID,321,VALID,0.290234,
2012-01-29, 02:47:05,VALID,1003.25,VALID,0,VALID,94.1938,VALID,0,VALID,22.6898,VALID,321,VALID,0.417188,
2012-01-29, 02:48:05,VALID,1003.18,VALID,0,VALID,94.1556,VALID,0,VALID,22.6704,VALID,205,VALID,0.782812,
2012-01-29, 02:49:05,VALID,1003.15,VALID,0,VALID,94.1099,VALID,0,VALID,22.6492,VALID,204,VALID,0.409375,
2012-01-29, 02:50:05,VALID,1003.13,VALID,0,VALID,94.1175,VALID,0,VALID,22.6509,VALID,204,VALID,0.139062,
2012-01-29, 02:51:05,VALID,1003.1,VALID,0.5,VALID,94.0717,VALID,0,VALID,22.6297,VALID,204,VALID,0.367188,
2012-01-29, 02:52:05,VALID,1003.1,VALID,0,VALID,94.2167,VALID,0,VALID,22.6721,VALID,204,VALID,0.500781,
2012-01-29, 02:53:05,VALID,1003.11,VALID,0,VALID,94.3616,VALID,0,VALID,22.7093,VALID,61,VALID,0.588281,
2012-01-29, 02:54:05,VALID,1003.09,VALID,0,VALID,94.3616,VALID,0.0815089,VALID,22.7076,VALID,59,VALID,0.240625,
2012-01-29, 02:55:05,VALID,1003.08,VALID,0,VALID,94.3387,VALID,0,VALID,22.7287,VALID,59,VALID,0.55625,
2012-01-29, 02:56:05,VALID,1003.06,VALID,0,VALID,94.209,VALID,0,VALID,22.6898,VALID,59,VALID,0.305859,
2012-01-29, 02:57:05,VALID,1003.09,VALID,0,VALID,94.2701,VALID,0,VALID,22.6881,VALID,59,VALID,0.342969,
2012-01-29, 02:58:05,VALID,1003.1,VALID,0,VALID,94.3464,VALID,0,VALID,22.7305,VALID,59,VALID,0.141406,
2012-01-29, 02:59:05,VALID,1003.11,VALID,0,VALID,94.3006,VALID,0.0815089,VALID,22.7093,VALID,59,VALID,0.180469,
2012-01-29, 03:00:05,VALID,1003.14,VALID,0,VALID,94.293,VALID,0,VALID,22.6915,VALID,59,VALID,0.00585938,
2012-01-29, 03:01:05,VALID,1003.11,VALID,0,VALID,94.3311,VALID,0,VALID,22.6492,VALID,59,VALID,0.139844,
2012-01-29, 03:02:05,VALID,1003.11,VALID,0,VALID,94.3235,VALID,0,VALID,22.6704,VALID,59,VALID,0.209766,
2012-01-29, 03:03:05,VALID,1003.13,VALID,0,VALID,94.354,VALID,0,VALID,22.6509,VALID,59,VALID,0.241797,
2012-01-29, 03:04:05,VALID,1003.12,VALID,0,VALID,94.3769,VALID,0,VALID,22.6915,VALID,59,VALID,0.205859,
2012-01-29, 03:05:05,VALID,1003.12,VALID,0,VALID,94.3921,VALID,0,VALID,22.6315,VALID,59,VALID,0.349609,
2012-01-29, 03:06:05,VALID,1003.09,VALID,0,VALID,94.3387,VALID,0,VALID,22.612,VALID,65,VALID,0.593359,
2012-01-29, 03:07:05,VALID,1003.11,VALID,0,VALID,94.4303,VALID,0,VALID,22.6526,VALID,109,VALID,0.764453,
2012-01-29, 03:08:05,VALID,1003.11,VALID,0,VALID,94.5981,VALID,0,VALID,22.6898,VALID,125,VALID,0.876172,
2012-01-29, 03:09:05,VALID,1003.09,VALID,0,VALID,94.4532,VALID,0,VALID,22.6315,VALID,127,VALID,1.12383,
2012-01-29, 03:10:05,VALID,1003.09,VALID,0,VALID,94.4379,VALID,0,VALID,22.6297,VALID,120,VALID,0.716797,
2012-01-29, 03:11:05,VALID,1003.1,VALID,0,VALID,94.4303,VALID,0.0815089,VALID,22.6315,VALID,120,VALID,0.637109,
2012-01-29, 03:12:05,VALID,1003.08,VALID,0,VALID,94.4379,VALID,0,VALID,22.6315,VALID,113,VALID,0.44375,
2012-01-29, 03:13:05,VALID,1003.05,VALID,0,VALID,94.3769,VALID,0,VALID,22.6137,VALID,95,VALID,0.453516,
2012-01-29, 03:14:05,VALID,1003.07,VALID,0,VALID,94.3845,VALID,0.0815089,VALID,22.612,VALID,79,VALID,0.158203,
2012-01-29, 03:15:05,VALID,1003.06,VALID,0,VALID,94.4455,VALID,0,VALID,22.612,VALID,79,VALID,0.382031,
2012-01-29, 03:16:05,VALID,1003.1,VALID,0,VALID,94.5066,VALID,0,VALID,22.6332,VALID,79,VALID,0.332812,
2012-01-29, 03:17:05,VALID,1003.1,VALID,0,VALID,94.4913,VALID,0,VALID,22.612,VALID,80,VALID,0.58125,
2012-01-29, 03:18:05,VALID,1003.06,VALID,0,VALID,94.3616,VALID,0,VALID,22.5925,VALID,100,VALID,0.895312,
2012-01-29, 03:19:05,VALID,1003.09,VALID,0,VALID,94.3616,VALID,0.0815089,VALID,22.5925,VALID,102,VALID,0.703516,
2012-01-29, 03:20:05,VALID,1003.05,VALID,0,VALID,94.3616,VALID,0,VALID,22.5714,VALID,103,VALID,0.478125,
2012-01-29, 03:21:05,VALID,1003.03,VALID,0,VALID,94.3769,VALID,0,VALID,22.6315,VALID,104,VALID,0.550391,
2012-01-29, 03:22:05,VALID,1002.99,VALID,0,VALID,94.3235,VALID,0,VALID,22.6315,VALID,104,VALID,0.346484,
2012-01-29, 03:23:05,VALID,1002.99,VALID,0,VALID,94.3769,VALID,0.0815089,VALID,22.6492,VALID,104,VALID,0.406641,
2012-01-29, 03:24:05,VALID,1002.98,VALID,0,VALID,94.2396,VALID,0,VALID,22.6509,VALID,104,VALID,0.367188,
2012-01-29, 03:25:05,VALID,1003.01,VALID,0,VALID,94.0259,VALID,0,VALID,22.6332,VALID,91,VALID,0.635938,
2012-01-29, 03:26:05,VALID,1003.01,VALID,0,VALID,94.0565,VALID,0,VALID,22.5925,VALID,91,VALID,0.689453,
2012-01-29, 03:27:05,VALID,1003,VALID,0,VALID,94.0565,VALID,0,VALID,22.5925,VALID,91,VALID,0.535937,
2012-01-29, 03:28:05,VALID,1002.99,VALID,0,VALID,94.0488,VALID,0,VALID,22.5714,VALID,91,VALID,0.439063,
2012-01-29, 03:29:05,VALID,1003,VALID,0,VALID,94.0565,VALID,0,VALID,22.5925,VALID,92,VALID,0.509375,
2012-01-29, 03:30:05,VALID,1002.97,VALID,0,VALID,94.087,VALID,0,VALID,22.6137,VALID,97,VALID,0.515234,
2012-01-29, 03:31:05,VALID,1003,VALID,0,VALID,93.8963,VALID,0,VALID,22.5925,VALID,108,VALID,0.846875,
2012-01-29, 03:32:05,VALID,1002.98,VALID,0,VALID,93.8429,VALID,0,VALID,22.5925,VALID,90,VALID,0.834766,
2012-01-29, 03:33:05,VALID,1002.96,VALID,0,VALID,93.82,VALID,0,VALID,22.5731,VALID,90,VALID,0.689062,
2012-01-29, 03:34:05,VALID,1002.95,VALID,0,VALID,93.8429,VALID,0,VALID,22.5925,VALID,91,VALID,0.622266,
2012-01-29, 03:35:05,VALID,1002.97,VALID,0,VALID,93.8047,VALID,0,VALID,22.612,VALID,87,VALID,0.752344,
2012-01-29, 03:36:05,VALID,1003.01,VALID,0,VALID,93.6598,VALID,0,VALID,22.5925,VALID,84,VALID,0.457031,
2012-01-29, 03:37:05,VALID,1003.03,VALID,0,VALID,93.7742,VALID,0,VALID,22.6332,VALID,84,VALID,0.371094,
2012-01-29, 03:38:05,VALID,1003.08,VALID,0,VALID,93.8276,VALID,0,VALID,22.6721,VALID,84,VALID,0.285937,
2012-01-29, 03:39:05,VALID,1003.08,VALID,0,VALID,93.7437,VALID,0,VALID,22.6526,VALID,84,VALID,0.640234,
2012-01-29, 03:40:05,VALID,1003.12,VALID,0,VALID,93.6598,VALID,0,VALID,22.6103,VALID,72,VALID,0.693359,
2012-01-29, 03:41:05,VALID,1003.15,VALID,0,VALID,93.6521,VALID,0,VALID,22.6315,VALID,67,VALID,0.825,
2012-01-29, 03:42:05,VALID,1003.18,VALID,0,VALID,93.7742,VALID,0,VALID,22.6704,VALID,75,VALID,0.628516,
2012-01-29, 03:43:05,VALID,1003.22,VALID,0,VALID,93.7589,VALID,0,VALID,22.6898,VALID,75,VALID,0.614844,
2012-01-29, 03:44:05,VALID,1003.25,VALID,0,VALID,93.7666,VALID,0,VALID,22.7287,VALID,105,VALID,0.403906,
2012-01-29, 03:45:05,VALID,1003.26,VALID,0,VALID,93.7208,VALID,0,VALID,22.7482,VALID,113,VALID,0.592969,
2012-01-29, 03:46:05,VALID,1003.27,VALID,0,VALID,93.7437,VALID,0,VALID,22.8066,VALID,113,VALID,0.579297,